Location: Kalisz
(51.7636°N, 18.0893°E)
Time: 20:03:07
(UTC+02:00)

ISS - Pass Details

Date: 31 March 2019
Orbit: 408 x 410 km, 51.6° (Epoch: 26 April)

Event Time Altitude Azimuth Distance (km) Brightness Sun altitude
Rises 20:59:49 0° 280° (W) 2,340 1.5 -15.6°
Reaches altitude 10° 21:01:55 10° 278° (W) 1,477 0.1 -15.9°
Maximum altitude 21:05:13 71° 195° (SSW) 438 -3.8 -16.3°
Enters shadow 21:06:03 46° 126° (SE) 563 -3.6 -16.4°
